| time (UTC) | temp F | wind direction | speed knots | gust knots | rain 1hr in | rain 24hr in | rain mn in | humidity % | barometer mb |
| 20260507191542 | 60 | 109 | 2.6 | 8.7 | 0.00 | 0.14 | 0.03 | 36 | 1005.8 |
| 20260507190038 | 60 | 179 | 3.5 | 7.0 | 0.00 | 0.14 | 0.03 | 37 | 1005.9 |
| 20260507184537 | 60 | 181 | 3.5 | 6.1 | 0.00 | 0.14 | 0.03 | 38 | 1006.0 |
| 20260507183051 | 60 | 100 | 2.6 | 7.0 | 0.00 | 0.14 | 0.03 | 41 | 1006.0 |
| 20260507181539 | 60 | 188 | 1.7 | 6.1 | 0.00 | 0.14 | 0.03 | 41 | 1006.1 |
| 20260507180048 | 60 | 181 | 2.6 | 11.3 | 0.00 | 0.14 | 0.03 | 43 | 1006.2 |
| 20260507174540 | 59 | 172 | 3.5 | 8.7 | 0.00 | 0.14 | 0.03 | 42 | 1006.1 |
| 20260507173053 | 58 | 203 | 4.3 | 7.8 | 0.00 | 0.14 | 0.03 | 42 | 1006.1 |
| 20260507171538 | 59 | 172 | 3.5 | 6.1 | 0.00 | 0.14 | 0.03 | 43 | 1006.2 |
| 20260507170050 | 60 | 38 | 2.6 | 7.0 | 0.00 | 0.14 | 0.03 | 44 | 1006.4 |
| 20260507164539 | 59 | 182 | 3.5 | 9.6 | 0.00 | 0.14 | 0.03 | 44 | 1006.7 |
| 20260507163037 | 58 | 203 | 3.5 | 7.8 | 0.00 | 0.14 | 0.03 | 45 | 1006.7 |
| 20260507161544 | 58 | 179 | 3.5 | 7.8 | 0.00 | 0.14 | 0.03 | 48 | 1006.9 |
| 20260507160038 | 57 | 182 | 4.3 | 12.2 | 0.00 | 0.14 | 0.03 | 46 | 1006.8 |
| 20260507154537 | 56 | 179 | 3.5 | 7.8 | 0.00 | 0.14 | 0.03 | 61 | 1006.9 |
| 20260507153039 | 56 | 165 | 2.6 | 5.2 | 0.00 | 0.14 | 0.03 | 64 | 1007.0 |
| 20260507151539 | 55 | 167 | 2.6 | 5.2 | 0.00 | 0.14 | 0.03 | 67 | 1007.2 |
| 20260507150038 | 55 | 192 | 1.7 | 9.6 | 0.00 | 0.14 | 0.03 | 66 | 1007.4 |
| 20260507144539 | 55 | 165 | 1.7 | 6.1 | 0.00 | 0.14 | 0.03 | 66 | 1007.5 |
| 20260507143036 | 55 | 168 | 1.7 | 4.3 | 0.00 | 0.14 | 0.03 | 65 | 1007.4 |
| 20260507141538 | 55 | 174 | 1.7 | 5.2 | 0.00 | 0.14 | 0.03 | 64 | 1007.4 |
| 20260507140042 | 54 | 162 | 2.6 | 6.1 | 0.00 | 0.14 | 0.03 | 66 | 1007.4 |
| 20260507134540 | 0 | 0.0 | 0.0 | 0.00 | 0.14 | 0.03 | 1007.3 | ||
| 20260507133045 | 0 | 0.0 | 0.0 | 0.00 | 0.14 | 0.03 | 1007.4 | ||
| 20260507131546 | 0 | 0.0 | 0.0 | 0.00 | 0.14 | 0.03 | 1007.8 | ||
| 20260507130059 | 0 | 0.0 | 0.0 | 0.00 | 0.14 | 0.03 | 1007.8 | ||
| 20260507124539 | 0 | 0.0 | 0.0 | 0.00 | 0.14 | 0.03 | 1007.8 | ||
| 20260507123043 | 0 | 0.0 | 0.0 | 0.00 | 0.14 | 0.03 | 1007.9 | ||
| 20260507121540 | 0 | 0.0 | 0.0 | 0.00 | 0.14 | 0.03 | 1008.0 | ||
| 20260507120039 | 0 | 0.0 | 0.0 | 0.00 | 0.14 | 0.03 | 1007.9 | ||
| 20260507114537 | 0 | 0.0 | 0.0 | 0.00 | 0.14 | 0.03 | 1007.9 | ||
| 20260507113039 | 0 | 0.0 | 0.0 | 0.00 | 0.14 | 0.03 | 1007.7 | ||
| 20260507111537 | 0 | 0.0 | 0.0 | 0.00 | 0.14 | 0.03 | 1007.7 | ||
| 20260507110048 | 0 | 0.0 | 0.0 | 0.00 | 0.14 | 0.03 | 1007.6 | ||
| 20260507104547 | 0 | 0.0 | 0.0 | 0.00 | 0.14 | 0.03 | 1007.2 | ||
| 20260507103104 | 0 | 0.0 | 0.0 | 0.00 | 0.14 | 0.03 | 1007.4 | ||
| 20260507101540 | 0 | 0.0 | 0.0 | 0.00 | 0.14 | 0.03 | 1007.3 | ||
| 20260507100048 | 0 | 0.0 | 0.0 | 0.00 | 0.14 | 0.03 | 1007.0 | ||
| 20260507094538 | 0 | 0.0 | 0.0 | 0.00 | 0.14 | 0.03 | 1007.5 | ||
| 20260507093042 | 0 | 0.0 | 0.0 | 0.00 | 0.14 | 0.03 | 1007.1 | ||
| 20260507091543 | 0 | 0.0 | 0.0 | 0.00 | 0.14 | 0.03 | 1007.2 | ||
| 20260507090038 | 0 | 0.0 | 0.0 | 0.01 | 0.14 | 0.03 | 1007.0 | ||
| 20260507084544 | 0 | 0.0 | 0.0 | 0.03 | 0.14 | 0.03 | 1007.5 | ||
| 20260507083038 | 0 | 0.9 | 5.2 | 0.03 | 0.14 | 0.03 | 1006.8 | ||
| 20260507081538 | 46 | 174 | 1.7 | 3.5 | 0.03 | 0.14 | 0.03 | 93 | 1006.9 |
| 20260507080046 | 47 | 169 | 0.9 | 4.3 | 0.02 | 0.13 | 0.02 | 91 | 1006.8 |
| 20260507074540 | 48 | 176 | 1.7 | 4.3 | 0.00 | 0.11 | 0.00 | 89 | 1007.2 |
| 20260507073042 | 48 | 186 | 0.9 | 3.5 | 0.00 | 0.11 | 0.00 | 90 | 1006.9 |
| 20260507071538 | 48 | 168 | 1.7 | 4.3 | 0.00 | 0.11 | 0.00 | 90 | 1006.6 |
| 20260507070058 | 48 | 188 | 1.7 | 4.3 | 0.00 | 0.11 | 0.00 | 91 | 1006.8 |
| 20260507064546 | 48 | 175 | 2.6 | 4.3 | 0.00 | 0.11 | 0.00 | 91 | 1006.3 |
| 20260507063037 | 48 | 165 | 1.7 | 6.1 | 0.00 | 0.11 | 0.00 | 90 | 1006.1 |
| 20260507061539 | 48 | 179 | 0.9 | 3.5 | 0.00 | 0.11 | 0.00 | 91 | 1006.4 |
| 20260507060040 | 49 | 187 | 0.9 | 4.3 | 0.00 | 0.11 | 0.00 | 91 | 1006.6 |
| 20260507054559 | 49 | 165 | 0.9 | 2.6 | 0.00 | 0.11 | 0.00 | 93 | 1006.7 |
| 20260507053038 | 49 | 0 | 0.9 | 4.3 | 0.00 | 0.11 | 0.00 | 91 | 1006.9 |
| 20260507051541 | 49 | 169 | 1.7 | 4.3 | 0.00 | 0.11 | 0.00 | 92 | 1006.8 |
| 20260507050048 | 50 | 156 | 2.6 | 4.3 | 0.00 | 0.11 | 0.00 | 93 | 1006.6 |
| 20260507044544 | 50 | 181 | 2.6 | 6.1 | 0.00 | 0.11 | 0.00 | 94 | 1006.7 |
| 20260507043039 | 50 | 172 | 0.9 | 4.3 | 0.00 | 0.11 | 0.00 | 95 | 1006.6 |
| 20260507041542 | 50 | 171 | 2.6 | 5.2 | 0.00 | 0.11 | 0.00 | 95 | 1006.9 |
| 20260507040042 | 51 | 167 | 1.7 | 6.1 | 0.00 | 0.11 | 0.00 | 96 | 1006.8 |
| 20260507034543 | 52 | 147 | 2.6 | 7.8 | 0.00 | 0.11 | 0.11 | 97 | 1006.5 |
| 20260507033041 | 53 | 181 | 1.7 | 8.7 | 0.01 | 0.11 | 0.11 | 97 | 1006.2 |
| 20260507031541 | 55 | 184 | 1.7 | 7.8 | 0.01 | 0.11 | 0.11 | 98 | 1005.8 |
| 20260507030039 | 56 | 188 | 2.6 | 4.3 | 0.01 | 0.11 | 0.11 | 99 | 1006.0 |
| 20260507024539 | 58 | 170 | 2.6 | 5.2 | 0.01 | 0.11 | 0.11 | 99 | 1005.6 |
| 20260507023037 | 58 | 148 | 1.7 | 5.2 | 0.00 | 0.10 | 0.10 | 99 | 1005.5 |
| 20260507021542 | 58 | 86 | 1.7 | 5.2 | 0.00 | 0.10 | 0.10 | 99 | 1005.1 |
| 20260507020050 | 58 | 196 | 0.9 | 6.1 | 0.00 | 0.10 | 0.10 | 99 | 1005.2 |
| 20260507014547 | 58 | 94 | 1.7 | 8.7 | 0.00 | 0.10 | 0.10 | 99 | 1005.2 |
| 20260507013045 | 58 | 25 | 1.7 | 9.6 | 0.00 | 0.10 | 0.10 | 99 | 1005.3 |
| 20260507011543 | 58 | 97 | 1.7 | 8.7 | 0.00 | 0.10 | 0.10 | 99 | 1005.3 |
| 20260507010043 | 58 | 65 | 1.7 | 7.8 | 0.00 | 0.10 | 0.10 | 99 | 1005.4 |
| 20260507004543 | 58 | 356 | 1.7 | 4.3 | 0.00 | 0.10 | 0.10 | 99 | 1005.2 |
| 20260507003039 | 58 | 333 | 1.7 | 7.8 | 0.01 | 0.10 | 0.10 | 99 | 1005.2 |
| 20260507001555 | 58 | 198 | 1.7 | 7.0 | 0.01 | 0.10 | 0.10 | 99 | 1005.2 |
| 20260507000050 | 58 | 179 | 2.6 | 7.0 | 0.03 | 0.10 | 0.10 | 99 | 1005.2 |
| 20260506234549 | 58 | 1 | 1.7 | 12.2 | 0.05 | 0.10 | 0.10 | 99 | 1005.0 |
| 20260506233041 | 58 | 98 | 3.5 | 10.4 | 0.04 | 0.09 | 0.09 | 99 | 1005.1 |
| 20260506231544 | 58 | 11 | 2.6 | 10.4 | 0.05 | 0.09 | 0.09 | 99 | 1005.0 |
| 20260506230042 | 58 | 134 | 3.5 | 11.3 | 0.04 | 0.07 | 0.07 | 99 | 1005.4 |
| 20260506224540 | 58 | 106 | 3.5 | 12.2 | 0.02 | 0.05 | 0.05 | 99 | 1005.4 |
| 20260506223038 | 58 | 91 | 3.5 | 13.9 | 0.02 | 0.05 | 0.05 | 99 | 1005.4 |
| 20260506221550 | 58 | 299 | 3.5 | 9.6 | 0.02 | 0.04 | 0.04 | 99 | 1005.5 |
| 20260506220043 | 58 | 349 | 3.5 | 9.6 | 0.01 | 0.03 | 0.03 | 99 | 1005.7 |
| 20260506214537 | 58 | 101 | 2.6 | 8.7 | 0.03 | 0.03 | 0.03 | 99 | 1005.8 |
| 20260506213046 | 58 | 84 | 2.6 | 11.3 | 0.03 | 0.03 | 0.03 | 98 | 1005.8 |
| 20260506211545 | 58 | 115 | 3.5 | 12.2 | 0.02 | 0.02 | 0.02 | 98 | 1006.0 |
| 20260506210045 | 59 | 173 | 4.3 | 10.4 | 0.02 | 0.02 | 0.02 | 98 | 1006.1 |
| 20260506204538 | 59 | 59 | 3.5 | 10.4 | 0.00 | 0.00 | 0.00 | 98 | 1006.2 |
| 20260506203038 | 60 | 19 | 2.6 | 11.3 | 0.00 | 0.00 | 0.00 | 98 | 1006.1 |
| 20260506201540 | 60 | 1 | 1.7 | 7.8 | 0.00 | 0.00 | 0.00 | 98 | 1006.3 |
| 20260506200045 | 60 | 146 | 1.7 | 6.1 | 0.00 | 0.00 | 0.00 | 98 | 1006.4 |
| 20260506194543 | 61 | 129 | 1.7 | 7.8 | 0.00 | 0.00 | 0.00 | 98 | 1006.2 |
| 20260506193048 | 61 | 0 | 0.0 | 3.5 | 0.00 | 0.00 | 0.00 | 98 | 1006.3 |